Hourly Weather Rusakovichi

Today, 15 April, Thursday

Time Temperature Precipitation Wind Pressure Humidity
00:00 +8°C° 0.1 mm 2 mps 745 mmHg 94%
01:00 +8°C° 0.1 mm 2 mps 746 mmHg 94%
02:00 +8°C° 0.1 mm 2 mps 746 mmHg 94%
03:00 +7°C° 0 mm 2 mps 746 mmHg 94%
04:00 +7°C° 0 mm 2 mps 746 mmHg 95%
05:00 +7°C° 0 mm 2 mps 746 mmHg 95%
06:00 +7°C° 0 mm 3 mps 746 mmHg 94%
07:00 +7°C° 0 mm 3 mps 746 mmHg 93%
08:00 +6°C° 0 mm 4 mps 746 mmHg 93%
09:00 +6°C° 0.4 mm 4 mps 746 mmHg 92%
10:00 +6°C° 0.4 mm 4 mps 745 mmHg 92%
11:00 +6°C° 0.4 mm 4 mps 745 mmHg 92%
12:00 +6°C° 1.3 mm 4 mps 745 mmHg 92%
13:00 +5°C° 1.3 mm 4 mps 745 mmHg 93%
14:00 +5°C° 1.3 mm 4 mps 745 mmHg 94%
15:00 +5°C° 0.6 mm 4 mps 744 mmHg 94%
16:00 +5°C° 0.6 mm 5 mps 744 mmHg 94%
17:00 +5°C° 0.6 mm 5 mps 744 mmHg 94%
18:00 +5°C° 0.6 mm 5 mps 744 mmHg 95%
19:00 +6°C° 0.6 mm 5 mps 744 mmHg 95%
20:00 +6°C° 0.6 mm 5 mps 743 mmHg 95%
21:00 +6°C° 1.1 mm 5 mps 743 mmHg 95%
22:00 +6°C° 1.1 mm 5 mps 743 mmHg 96%
23:00 +6°C° 1.1 mm 4 mps 743 mmHg 96%

Tomorrow, 16 April, Friday

Time Temperature Precipitation Wind Pressure Humidity
00:00 +6°C° 0 mm 4 mps 743 mmHg 96%
01:00 +7°C° 0 mm 3 mps 743 mmHg 96%
02:00 +8°C° 0 mm 3 mps 743 mmHg 97%
03:00 +7°C° 0 mm 3 mps 743 mmHg 96%
04:00 +7°C° 0 mm 3 mps 743 mmHg 96%
05:00 +5°C° 0 mm 3 mps 743 mmHg 96%
06:00 +7°C° 0.1 mm 3 mps 744 mmHg 93%
07:00 +8°C° 0.1 mm 3 mps 744 mmHg 90%
08:00 +9°C° 0.1 mm 3 mps 744 mmHg 87%
09:00 +10°C° 0.4 mm 4 mps 744 mmHg 83%
10:00 +10°C° 0.4 mm 5 mps 744 mmHg 79%
11:00 +12°C° 0.4 mm 5 mps 744 mmHg 75%
12:00 +11°C° 0.2 mm 6 mps 744 mmHg 69%
13:00 +13°C° 0.2 mm 6 mps 744 mmHg 64%
14:00 +14°C° 0.2 mm 6 mps 744 mmHg 58%
15:00 +13°C° 0.1 mm 5 mps 745 mmHg 60%
16:00 +13°C° 0.1 mm 4 mps 745 mmHg 62%
17:00 +13°C° 0.1 mm 4 mps 745 mmHg 65%
18:00 +11°C° 0.3 mm 3 mps 745 mmHg 73%
19:00 +10°C° 0.3 mm 3 mps 746 mmHg 80%
20:00 +8°C° 0.3 mm 2 mps 746 mmHg 88%
21:00 +8°C° 0.1 mm 2 mps 746 mmHg 90%
22:00 +7°C° 0.1 mm 2 mps 746 mmHg 92%
23:00 +7°C° 0.1 mm 2 mps 747 mmHg 94%

Day after tomorrow, 17 April, Saturday

Time Temperature Precipitation Wind Pressure Humidity
00:00 +6°C° 0 mm 2 mps 747 mmHg 95%
01:00 +6°C° 0 mm 2 mps 747 mmHg 95%
02:00 +6°C° 0 mm 2 mps 747 mmHg 95%
03:00 +5°C° 0 mm 2 mps 747 mmHg 95%
04:00 +5°C° 0 mm 2 mps 748 mmHg 95%
05:00 +5°C° 0 mm 2 mps 748 mmHg 95%
06:00 +6°C° 0 mm 2 mps 748 mmHg 90%
07:00 +7°C° 0 mm 2 mps 749 mmHg 86%
08:00 +9°C° 0 mm 2 mps 749 mmHg 81%
09:00 +10°C° 0.1 mm 2 mps 749 mmHg 75%
10:00 +11°C° 0.1 mm 3 mps 749 mmHg 69%
11:00 +13°C° 0.1 mm 3 mps 749 mmHg 63%
12:00 +13°C° 0.2 mm 4 mps 749 mmHg 60%
13:00 +14°C° 0.2 mm 4 mps 749 mmHg 56%
14:00 +14°C° 0.2 mm 4 mps 749 mmHg 53%
15:00 +14°C° 0 mm 4 mps 749 mmHg 55%
16:00 +14°C° 0 mm 3 mps 749 mmHg 57%
17:00 +14°C° 0 mm 3 mps 749 mmHg 59%
18:00 +12°C° 0.1 mm 3 mps 749 mmHg 67%
19:00 +12°C° 0.1 mm 2 mps 750 mmHg 74%
20:00 +10°C° 0.1 mm 2 mps 750 mmHg 82%
21:00 +9°C° 0.3 mm 2 mps 750 mmHg 85%
22:00 +10°C° 0.3 mm 1 mps 750 mmHg 88%
23:00 +10°C° 0.3 mm 1 mps 750 mmHg 91%

18 April, Sunday

Time Temperature Precipitation Wind Pressure Humidity
00:00 +10°C° 1.7 mm 1 mps 750 mmHg 93%
01:00 +9°C° 1.7 mm 1 mps 750 mmHg 94%
02:00 +9°C° 1.7 mm 1 mps 750 mmHg 95%
03:00 +9°C° 0.2 mm 1 mps 750 mmHg 94%
04:00 +9°C° 0.2 mm 1 mps 750 mmHg 94%
05:00 +8°C° 0.2 mm 1 mps 750 mmHg 93%
06:00 +8°C° 0 mm 1 mps 750 mmHg 91%
07:00 +9°C° 0 mm 1 mps 751 mmHg 90%
08:00 +9°C° 0 mm 1 mps 751 mmHg 88%
09:00 +9°C° 0 mm 1 mps 751 mmHg 84%
10:00 +10°C° 0 mm 1 mps 751 mmHg 80%
11:00 +11°C° 0 mm 1 mps 752 mmHg 75%
12:00 +11°C° 0.1 mm 1 mps 752 mmHg 72%
13:00 +12°C° 0.1 mm 1 mps 752 mmHg 69%
14:00 +13°C° 0.1 mm 2 mps 751 mmHg 66%
15:00 +13°C° 0 mm 2 mps 751 mmHg 68%
16:00 +12°C° 0 mm 2 mps 751 mmHg 70%
17:00 +11°C° 0 mm 3 mps 751 mmHg 72%
18:00 +10°C° 0 mm 2 mps 751 mmHg 78%
19:00 +9°C° 0 mm 2 mps 752 mmHg 84%
20:00 +8°C° 0 mm 2 mps 752 mmHg 89%
21:00 +8°C° 0 mm 2 mps 752 mmHg 90%
22:00 +7°C° 0 mm 2 mps 752 mmHg 92%
23:00 +7°C° 0 mm 2 mps 752 mmHg 93%

19 April, Monday

Time Temperature Precipitation Wind Pressure Humidity
00:00 +7°C° 0 mm 2 mps 752 mmHg 94%
01:00 +6°C° 0 mm 2 mps 751 mmHg 95%
02:00 +6°C° 0 mm 2 mps 751 mmHg 95%
03:00 +6°C° 0 mm 2 mps 751 mmHg 96%
04:00 +6°C° 0 mm 2 mps 751 mmHg 97%
05:00 +5°C° 0 mm 3 mps 751 mmHg 97%
06:00 +7°C° 0 mm 3 mps 750 mmHg 93%
07:00 +8°C° 0 mm 4 mps 750 mmHg 90%
08:00 +9°C° 0 mm 5 mps 750 mmHg 86%
09:00 +9°C° 0.3 mm 5 mps 750 mmHg 86%
10:00 +9°C° 0.3 mm 5 mps 750 mmHg 86%
11:00 +9°C° 0.3 mm 5 mps 750 mmHg 87%
12:00 +10°C° 0.1 mm 6 mps 749 mmHg 78%
13:00 +11°C° 0.1 mm 6 mps 749 mmHg 70%
14:00 +14°C° 0.1 mm 7 mps 748 mmHg 62%
15:00 +12°C° 0.1 mm 7 mps 748 mmHg 64%
16:00 +12°C° 0.1 mm 7 mps 748 mmHg 65%
17:00 +11°C° 0.1 mm 7 mps 747 mmHg 67%
18:00 +10°C° 0.4 mm 6 mps 747 mmHg 72%
19:00 +10°C° 0.4 mm 5 mps 747 mmHg 77%
20:00 +9°C° 0.4 mm 5 mps 746 mmHg 83%
21:00 +8°C° 0.4 mm 5 mps 746 mmHg 85%
22:00 +8°C° 0.4 mm 5 mps 745 mmHg 87%
23:00 +8°C° 0.4 mm 6 mps 745 mmHg 89%

20 April, Tuesday

Time Temperature Precipitation Wind Pressure Humidity
00:00 +8°C° 0.2 mm 6 mps 744 mmHg 88%
01:00 +8°C° 0.2 mm 7 mps 744 mmHg 87%
02:00 +8°C° 0.2 mm 7 mps 743 mmHg 85%
03:00 +6°C° 0.6 mm 7 mps 742 mmHg 87%
04:00 +6°C° 0.6 mm 7 mps 742 mmHg 89%
05:00 +6°C° 0.6 mm 7 mps 741 mmHg 91%
06:00 +5°C° 1 mm 7 mps 741 mmHg 91%
07:00 +5°C° 1 mm 8 mps 740 mmHg 90%
08:00 +4°C° 1 mm 8 mps 739 mmHg 90%
09:00 +4°C° 0.6 mm 8 mps 739 mmHg 92%
10:00 +2°C° 0.6 mm 8 mps 738 mmHg 93%
11:00 +1°C° 0.6 mm 8 mps 738 mmHg 95%
12:00 +1°C° 0.3 mm 8 mps 737 mmHg 95%
13:00 +2°C° 0.3 mm 7 mps 737 mmHg 95%
14:00 +2°C° 0.3 mm 7 mps 736 mmHg 96%
15:00 0°C° 1.7 mm 7 mps 736 mmHg 96%
16:00 0°C° 1.7 mm 7 mps 735 mmHg 96%
17:00 0°C° 1.7 mm 7 mps 735 mmHg 96%
18:00 +1°C° 1.5 mm 6 mps 735 mmHg 96%
19:00 +1°C° 1.5 mm 6 mps 734 mmHg 96%
20:00 +1°C° 1.5 mm 5 mps 734 mmHg 96%
21:00 +2°C° 0.2 mm 5 mps 733 mmHg 96%
22:00 +3°C° 0.2 mm 5 mps 733 mmHg 96%
23:00 +5°C° 0.2 mm 5 mps 733 mmHg 97%
Show more